TimeMST,TemperatureF,Dew PointF,Humidity,Sea Level PressureIn,VisibilityMPH,Wind Direction,Wind SpeedMPH,Gust SpeedMPH,PrecipitationIn,Events,Conditions,WindDirDegrees,DateUTC
12:56 AM,-6.0,-10.8,79,30.46,10.0,East,5.8,-,N/A,,Partly Cloudy,100,2013-02-27 07:56:00
1:56 AM,2.1,-1.8,83,30.42,10.0,Calm,Calm,-,N/A,,Mostly Cloudy,0,2013-02-27 08:56:00
2:18 AM,3.2,-0.4,85,30.26,10.0,Calm,Calm,-,N/A,,Overcast,0,2013-02-27 09:18:00
2:39 AM,3.2,-0.4,85,30.26,10.0,SSE,3.5,-,N/A,,Mostly Cloudy,150,2013-02-27 09:39:00
2:56 AM,5.0,1.0,84,30.42,10.0,ESE,5.8,-,N/A,,Mostly Cloudy,110,2013-02-27 09:56:00
4:56 AM,14.0,9.1,81,30.41,10.0,SSE,8.1,-,0.00,,Mostly Cloudy,150,2013-02-27 11:56:00
5:56 AM,13.1,8.1,80,30.48,10.0,SSE,5.8,-,0.00,,Overcast,150,2013-02-27 12:56:00
6:56 AM,13.1,8.1,80,30.51,10.0,Calm,Calm,-,N/A,,Overcast,0,2013-02-27 13:56:00
7:56 AM,15.1,10.0,80,30.51,10.0,South,8.1,-,N/A,,Overcast,180,2013-02-27 14:56:00
8:56 AM,16.2,10.0,77,30.52,10.0,Calm,Calm,-,N/A,,Overcast,0,2013-02-27 15:56:00
9:56 AM,19.0,10.0,68,30.50,10.0,South,8.1,-,N/A,,Overcast,170,2013-02-27 16:56:00
10:56 AM,20.1,10.0,65,30.52,10.0,SSW,5.8,-,N/A,,Mostly Cloudy,200,2013-02-27 17:56:00
11:56 AM,21.0,10.0,63,30.51,10.0,West,3.5,-,N/A,,Overcast,260,2013-02-27 18:56:00
12:56 PM,21.0,12.0,68,30.56,10.0,WNW,4.6,-,N/A,,Overcast,300,2013-02-27 19:56:00
1:56 PM,27.1,12.0,53,30.47,10.0,North,3.5,-,N/A,,Partly Cloudy,360,2013-02-27 20:56:00
2:56 PM,26.1,12.0,55,30.43,10.0,Calm,Calm,-,N/A,,Clear,0,2013-02-27 21:56:00
3:56 PM,21.0,12.0,68,30.45,10.0,NW,8.1,-,0.02,,Clear,320,2013-02-27 22:56:00
4:56 PM,21.0,12.0,68,30.42,10.0,NNW,4.6,-,N/A,,Mostly Cloudy,340,2013-02-27 23:56:00
5:56 PM,10.0,3.0,73,30.47,10.0,NW,3.5,-,N/A,,Clear,320,2013-02-28 00:56:00
7:56 PM,9.1,5.0,83,30.50,10.0,SSE,3.5,-,N/A,,Clear,160,2013-02-28 02:56:00
9:56 PM,9.1,5.0,83,30.50,10.0,SW,3.5,-,N/A,,Overcast,230,2013-02-28 04:56:00
10:15 PM,6.8,3.2,85,30.33,10.0,SSE,9.2,-,N/A,,Overcast,150,2013-02-28 05:15:00
10:48 PM,-0.4,-5.8,78,30.33,10.0,ESE,4.6,-,N/A,,Mostly Cloudy,110,2013-02-28 05:48:00
11:09 PM,-2.2,-5.8,85,30.33,10.0,East,3.5,-,N/A,,Mostly Cloudy,90,2013-02-28 06:09:00
11:56 PM,3.0,-0.9,84,30.50,10.0,NNE,4.6,-,N/A,,Mostly Cloudy,20,2013-02-28 06:56:00